TimeCST,TemperatureF,Dew PointF,Humidity,Sea Level PressureIn,VisibilityMPH,Wind Direction,Wind SpeedMPH,Gust SpeedMPH,PrecipitationIn,Events,Conditions,WindDirDegrees,DateUTC
12:21 AM,15.1,8.1,74,30.08,2.0,NNE,4.6,-,0.00,Snow,Light Snow,30,2014-02-01 06:21:00
12:54 AM,15.1,10.0,80,30.11,2.5,NE,3.5,-,0.01,Snow,Light Snow,40,2014-02-01 06:54:00
1:38 AM,16.0,12.0,84,30.04,2.0,NE,3.5,-,0.01,Snow,Light Snow,50,2014-02-01 07:38:00
1:54 AM,16.0,12.0,84,30.08,3.0,NNE,5.8,-,0.02,Snow,Light Snow,20,2014-02-01 07:54:00
2:54 AM,16.0,12.0,84,30.07,4.0,North,8.1,-,0.00,Snow,Light Snow,10,2014-02-01 08:54:00
3:29 AM,16.0,12.9,88,30.00,2.0,NNE,6.9,-,0.01,Snow,Light Snow,20,2014-02-01 09:29:00
3:54 AM,16.0,12.9,88,30.05,1.2,North,6.9,-,0.03,Snow,Light Snow,10,2014-02-01 09:54:00
4:09 AM,16.0,12.9,88,30.01,0.8,North,6.9,-,0.02,Snow,Light Snow,360,2014-02-01 10:09:00
4:43 AM,16.0,12.0,84,30.00,1.0,NNE,9.2,-,0.06,Snow,Light Snow,20,2014-02-01 10:43:00
4:54 AM,16.0,12.9,88,30.03,1.0,NNE,11.5,-,0.07,Snow,Light Snow,20,2014-02-01 10:54:00
5:08 AM,16.0,12.9,88,29.98,0.8,NNE,9.2,-,0.02,Snow,Light Snow,30,2014-02-01 11:08:00
5:16 AM,16.0,12.9,88,29.97,1.0,NE,8.1,-,0.02,Snow,Light Snow,40,2014-02-01 11:16:00
5:54 AM,17.1,14.0,88,30.01,1.0,NNE,8.1,-,0.06,Snow,Light Snow,20,2014-02-01 11:54:00
6:54 AM,18.0,15.1,88,30.00,1.0,NNE,8.1,-,0.05,Snow,Light Snow,20,2014-02-01 12:54:00
7:27 AM,18.0,15.1,88,29.97,0.8,North,8.1,-,0.02,Snow,Light Snow,10,2014-02-01 13:27:00
7:35 AM,18.0,15.1,88,29.98,0.8,North,8.1,-,0.03,Snow,Light Snow,10,2014-02-01 13:35:00
7:54 AM,18.0,14.0,84,30.02,0.8,North,8.1,-,0.04,Snow,Light Snow,360,2014-02-01 13:54:00
8:34 AM,19.0,15.1,85,29.93,1.5,NE,10.4,-,0.02,Snow,Light Snow,40,2014-02-01 14:34:00
8:54 AM,19.9,15.1,81,29.98,1.5,NE,10.4,-,0.03,Snow,Light Snow,40,2014-02-01 14:54:00
9:17 AM,19.9,16.0,85,29.94,2.0,NE,9.2,-,0.00,Snow,Light Snow,40,2014-02-01 15:17:00
9:39 AM,21.0,16.0,81,29.94,3.0,NNE,8.1,-,0.00,Snow,Light Snow,30,2014-02-01 15:39:00
9:54 AM,21.0,16.0,81,29.98,5.0,NNE,10.4,-,0.00,Snow,Light Snow,20,2014-02-01 15:54:00
10:54 AM,21.9,17.1,82,29.98,5.0,North,9.2,-,0.00,Snow,Light Snow,10,2014-02-01 16:54:00
11:54 AM,24.1,18.0,77,29.96,4.0,NNE,8.1,-,0.00,Snow,Light Snow,30,2014-02-01 17:54:00
12:54 PM,24.1,18.0,77,29.95,4.0,North,9.2,-,0.00,Snow,Light Snow,350,2014-02-01 18:54:00
1:20 PM,24.1,19.0,81,29.91,1.5,North,9.2,-,0.00,Snow,Light Snow,10,2014-02-01 19:20:00
1:35 PM,24.1,19.0,81,29.91,1.5,North,11.5,-,0.00,Snow,Light Snow,360,2014-02-01 19:35:00
1:54 PM,24.1,19.0,81,29.95,1.5,North,9.2,-,0.00,Snow,Light Snow,350,2014-02-01 19:54:00
2:17 PM,24.1,19.0,81,29.91,1.0,North,10.4,-,0.01,Snow,Light Snow,360,2014-02-01 20:17:00
2:54 PM,24.1,19.9,84,29.96,1.0,North,8.1,-,0.01,Snow,Light Snow,350,2014-02-01 20:54:00
3:29 PM,21.9,18.0,85,29.94,1.5,North,11.5,-,0.00,Snow,Light Snow,360,2014-02-01 21:29:00
3:39 PM,21.9,17.1,82,29.93,2.0,North,10.4,-,0.00,Snow,Light Snow,350,2014-02-01 21:39:00
3:54 PM,21.9,17.1,82,29.99,1.5,North,10.4,-,0.00,Snow,Light Snow,350,2014-02-01 21:54:00
4:12 PM,21.0,16.0,81,29.96,2.5,North,9.2,-,0.00,Snow,Light Snow,350,2014-02-01 22:12:00
4:41 PM,21.0,16.0,81,29.98,5.0,North,9.2,-,0.00,Snow,Light Snow,360,2014-02-01 22:41:00
4:54 PM,21.0,16.0,81,30.02,7.0,North,11.5,-,0.00,,Overcast,360,2014-02-01 22:54:00
5:54 PM,19.9,16.0,85,30.04,10.0,Calm,Calm,-,N/A,,Mostly Cloudy,0,2014-02-01 23:54:00
6:54 PM,19.0,15.1,85,30.08,10.0,NNW,5.8,-,N/A,,Overcast,330,2014-02-02 00:54:00
7:16 PM,18.0,14.0,84,30.04,10.0,NNW,4.6,-,N/A,,Mostly Cloudy,340,2014-02-02 01:16:00
7:54 PM,16.0,12.9,88,30.11,7.0,Calm,Calm,-,N/A,,Overcast,0,2014-02-02 01:54:00
8:54 PM,14.0,12.9,95,30.12,6.0,NW,3.5,-,N/A,,Overcast,320,2014-02-02 02:54:00
9:54 PM,17.1,12.9,84,30.13,5.0,WSW,3.5,-,N/A,,Overcast,250,2014-02-02 03:54:00
10:54 PM,19.0,14.0,81,30.14,10.0,NW,6.9,-,N/A,,Overcast,310,2014-02-02 04:54:00
11:03 PM,19.0,14.0,81,30.11,10.0,NW,8.1,-,N/A,,Overcast,310,2014-02-02 05:03:00
11:54 PM,19.0,12.9,77,30.15,10.0,NW,6.9,-,N/A,,Overcast,310,2014-02-02 05:54:00